Weather History for Chapel Hill, NC

Change the Weather History Date:

Friday, January 11, 2013

  Actual Average Record
Temperature  
Mean Temperature 44 °F -  
Max Temperature 48 °F 45 °F 71 °F (1949)
Min Temperature 39 °F 25 °F 0 °F (1982)
Degree Days  
Heating Degree Days 22    
Moisture  
Dew Point 41 °F    
Average Humidity 89    
Maximum Humidity 100    
Minimum Humidity 54    
Precipitation  
Precipitation 0.14 in - - ()
Sea Level Pressure  
Sea Level Pressure 30.29 in    
Wind  
Wind Speed 3 mph (NE)    
Max Wind Speed 7 mph    
Max Gust Speed -    
Visibility 3 miles    
Events Fog , Rain    
Averages and records for this station are not official NWS values.
T = Trace of Precipitation, MM = Missing Value Source: NWS Daily Summary

Daily Weather History Graph

Daily Weather History Graph

Search for Another Location

Airport:

Trip Planner

Search our weather history database for the weather conditions in past years. The results will help you decide how hot, cold, wet, or windy it might be!

Date:

Astronomy

Jan. 11, 2013 Rise Set
Actual Time 7:26 AM EST 5:22 PM EST
Civil Twilight 6:58 AM EST 5:50 PM EST
Nautical Twilight 6:27 AM EST 6:21 PM EST
Astronomical Twilight 5:56 AM EST 6:52 PM EST
Moon 6:59 AM EST (1/11) 5:36 PM EST (1/11)
Length of Visible Light 10h 51m
Length of Day
9h 55m
Waning Crescent, 0% of the Moon is Illuminated
Jan 11
Waning Crescent
Jan 11
New
Jan 18
First Quarter
Jan 26
Full
Feb 3
Last Quarter

Hourly Weather History & Observations

Time (EST) Temp. Windchill Dew Point Humidity Pressure Visibility Wind Dir Wind Speed Gust Speed Precip Events Conditions
1:56 AM 48.9 °F - 34.0 °F 56% 30.40 in 10.0 mi ENE 3.5 mph - N/A   Overcast
2:56 AM 48.0 °F - 35.1 °F 61% 30.40 in 10.0 mi ENE 3.5 mph - 0.00 in   Overcast
3:14 AM 48.0 °F - 34.0 °F 58% 30.40 in 10.0 mi ENE 5.8 mph - N/A   Overcast
3:56 AM 48.0 °F - 32.0 °F 54% 30.38 in 10.0 mi ENE 5.8 mph - N/A   Overcast
4:56 AM 44.1 °F 41.5 °F 37.0 °F 76% 30.36 in 6.0 mi NE 4.6 mph - 0.01 in Rain Light Rain
5:56 AM 42.1 °F 37.7 °F 37.9 °F 85% 30.35 in 4.0 mi NE 6.9 mph - 0.02 in Rain Light Rain
6:24 AM 41.0 °F 39.0 °F 37.9 °F 89% 30.37 in 2.5 mi North 3.5 mph - 0.02 in Rain Light Rain
6:56 AM 41.0 °F 38.0 °F 37.9 °F 89% 30.38 in 2.5 mi NNW 4.6 mph - 0.04 in Rain Light Rain
7:26 AM 41.0 °F 37.1 °F 37.9 °F 89% 30.37 in 5.0 mi NNE 5.8 mph - 0.03 in   Overcast
7:38 AM 41.0 °F 37.1 °F 37.9 °F 89% 30.36 in 3.0 mi NE 5.8 mph - 0.03 in   Overcast
7:52 AM 39.2 °F 34.2 °F 37.4 °F 93% 30.36 in 1.8 mi NE 6.9 mph - 0.04 in Rain Light Rain
7:56 AM 41.0 °F 37.1 °F 37.9 °F 89% 30.37 in 1.5 mi NE 5.8 mph - 0.04 in Rain Light Rain
8:15 AM 39.9 °F 35.8 °F 37.9 °F 93% 30.37 in 1.2 mi NE 5.8 mph - 0.02 in Rain Light Rain
8:23 AM 41.0 °F 38.0 °F 37.9 °F 89% 30.36 in 1.2 mi NE 4.6 mph - 0.02 in Rain Light Rain
8:35 AM 41.0 °F 38.0 °F 39.0 °F 93% 30.37 in 2.0 mi NNE 4.6 mph - 0.03 in Rain Light Rain
8:44 AM 41.0 °F 38.0 °F 39.0 °F 93% 30.36 in 6.0 mi NE 4.6 mph - 0.03 in   Overcast
8:56 AM 41.0 °F - 39.0 °F 93% 30.37 in 5.0 mi Calm Calm - 0.03 in   Overcast
9:08 AM 41.0 °F - 39.0 °F 93% 30.36 in 6.0 mi Calm Calm - N/A   Overcast
9:20 AM 42.1 °F - 39.0 °F 89% 30.36 in 7.0 mi Calm Calm - N/A   Overcast
9:49 AM 42.1 °F 40.2 °F 39.9 °F 92% 30.36 in 3.0 mi North 3.5 mph - 0.00 in Rain Light Rain
9:51 AM 42.8 °F - 39.2 °F 87% 30.36 in 2.5 mi Calm Calm - 0.00 in Rain Light Rain
9:56 AM 42.1 °F - 39.9 °F 92% 30.36 in 2.0 mi Calm Calm - 0.00 in Rain Light Rain
10:03 AM 42.1 °F 40.2 °F 39.9 °F 92% 30.36 in 2.0 mi NW 3.5 mph - 0.01 in Rain Light Rain
10:20 AM 43.0 °F 40.3 °F 39.9 °F 89% 30.36 in 4.0 mi NNW 4.6 mph - 0.01 in Rain Light Rain
10:35 AM 43.0 °F 40.3 °F 39.9 °F 89% 30.34 in 7.0 mi NE 4.6 mph - 0.01 in   Overcast
11:56 AM 44.1 °F 42.5 °F 42.1 °F 93% 30.29 in 4.0 mi NE 3.5 mph - N/A   Overcast
12:19 PM 44.1 °F - 42.1 °F 93% 30.28 in 2.0 mi Calm Calm - N/A   Overcast
12:28 PM 44.1 °F - 42.1 °F 93% 30.27 in 1.5 mi Calm Calm - N/A   Overcast
12:56 PM 45.0 °F 43.5 °F 43.0 °F 93% 30.25 in 0.8 mi East 3.5 mph - N/A   Overcast
1:08 PM 45.0 °F 43.5 °F 43.0 °F 93% 30.24 in 0.5 mi East 3.5 mph - N/A Fog Fog
1:56 PM 46.0 °F - 44.1 °F 93% 30.23 in 0.2 mi Calm Calm - N/A Fog Fog
2:56 PM 46.9 °F - 45.0 °F 93% 30.21 in 0.2 mi ESE 3.5 mph - N/A Fog Fog
3:56 PM 46.9 °F - 45.0 °F 93% 30.20 in 0.2 mi Calm Calm - N/A Fog Fog
4:56 PM 48.0 °F - 46.0 °F 93% 30.20 in 0.2 mi Calm Calm - N/A Fog Fog
5:56 PM 48.0 °F - 46.0 °F 93% 30.20 in 0.2 mi Calm Calm - N/A Fog Fog
6:56 PM 48.0 °F - 46.9 °F 96% 30.19 in 0.2 mi Calm Calm - N/A Fog Fog
7:56 PM 48.0 °F - 46.0 °F 93% 30.18 in 0.5 mi Calm Calm - N/A Fog Fog
8:14 PM 48.0 °F - 46.0 °F 93% 30.19 in 1.0 mi West 5.8 mph - N/A   Mist
8:28 PM 48.0 °F - 46.0 °F 93% 30.18 in 3.0 mi Calm Calm - N/A   Overcast
8:56 PM 48.0 °F - 46.0 °F 93% 30.19 in 3.0 mi Calm Calm - N/A   Overcast
9:05 PM 48.0 °F - 46.0 °F 93% 30.19 in 2.5 mi WSW 4.6 mph - N/A   Overcast
9:56 PM 46.9 °F - 46.0 °F 97% 30.17 in 3.0 mi Calm Calm - N/A   Overcast
10:20 PM 46.9 °F - 46.0 °F 97% 30.17 in 2.0 mi Calm Calm - N/A   Overcast
10:28 PM 46.9 °F - 46.0 °F 97% 30.17 in 1.2 mi Calm Calm - N/A   Overcast
10:54 PM 46.4 °F - 46.4 °F 100% 30.17 in 0.8 mi Calm Calm - N/A   Mist
10:56 PM 46.9 °F - 46.0 °F 97% 30.17 in 0.8 mi Calm Calm - N/A   Mist
11:04 PM 46.9 °F - 46.0 °F 97% 30.16 in 0.5 mi Calm Calm - N/A Fog Fog
11:56 PM 48.0 °F - 46.0 °F 93% 30.17 in 0.2 mi WNW 4.6 mph - N/A Fog Fog